This is the latest recevied weather packets stored in our database for station/object CQ0XSM-11. If no packets are shown the sender has not sent any weather packets the latest 10 day(s).
| Time | Temp. | Humidity | Pressure | Rain* | Wind** | Luminosity | Snow |
|---|---|---|---|---|---|---|---|
| 1777625867 | 12.78° C | 100% | 999.9 hPa | 0 mm | - | - | - |
| 1777625583 | 12.22° C | 100% | 999.9 hPa | 0 mm | - | - | - |
| 1777625267 | 12.22° C | 100% | 1000 hPa | 0 mm | - | - | - |
| 1777624413 | 11.67° C | 100% | 999.9 hPa | 0 mm | - | - | - |
| 1777624050 | 11.67° C | 100% | 999.8 hPa | 0 mm | - | - | - |
| 1777623770 | 11.67° C | 100% | 999.6 hPa | 0 mm | - | - | - |
| 1777623456 | 11.67° C | 100% | 999.4 hPa | 0 mm | - | - | - |
| 1777623159 | 11.67° C | 100% | 999.3 hPa | 0 mm | - | - | - |
| 1777622836 | 11.67° C | 100% | 999.3 hPa | 0 mm | - | - | - |
| 1777622598 | 11.11° C | 100% | 999.3 hPa | 0 mm | - | - | - |
| 1777622219 | 11.11° C | 100% | 999.4 hPa | 0 mm | - | - | - |
| 1777621947 | 10.56° C | 100% | 999.4 hPa | 0 mm | - | - | - |
| 1777621343 | 10.56° C | 100% | 999.6 hPa | 0 mm | - | - | - |
| 1777621010 | 10° C | 100% | 999.6 hPa | 0 mm | - | - | - |
| 1777620404 | 8.89° C | 100% | 999.7 hPa | 0 mm | - | - | - |
| 1777619829 | 8.89° C | 100% | 999.5 hPa | 0 mm | - | - | - |
| 1777619498 | 8.33° C | 100% | 999.3 hPa | 0 mm | - | - | - |
| 1777619196 | 7.78° C | 100% | 999.4 hPa | 0 mm | - | - | - |
| 1777618930 | 7.22° C | 100% | 999.3 hPa | 0 mm | - | - | - |
| 1777618284 | 6.11° C | 100% | 999.2 hPa | 0 mm | - | - | - |
| 1777617988 | 5.56° C | 100% | 999.2 hPa | 0 mm | - | - | - |
| 1777617693 | 5.56° C | 100% | 999.3 hPa | 0 mm | - | - | - |
| 1777617378 | 5° C | 100% | 999.2 hPa | 0 mm | - | - | - |
| 1777617129 | 4.44° C | 100% | 999.2 hPa | 0 mm | - | - | - |
| 1777616766 | 4.44° C | 100% | 999.1 hPa | 0 mm | - | - | - |
* Rain since midnight (hover to see other rain measurements)
** Current wind speed in m/s (hover to see current wind gust speed)